South Burlington, VT

3:50 AM EST on February 14, 2016 (GMT -0500)
Burlington International

Weather History for KBTV - March, 2013

Change the Weather History Date:

Saturday, March 23, 2013

  Actual Average Record
Temperature  
Mean Temperature 33 °F 34 °F  
Max Temperature 37 °F 43 °F 73 °F (1938)
Min Temperature 29 °F 25 °F 1 °F (1934)
Degree Days  
Heating Degree Days 32 31  
Month to date heating degree days 782 821  
Since 1 July heating degree days 5660 6231  
Cooling Degree Days 0 0  
Month to date cooling degree days 0 0  
Year to date cooling degree days 0 0  
Moisture  
Dew Point 20 °F    
Average Humidity 57    
Maximum Humidity 69    
Minimum Humidity 44    
Precipitation  
Precipitation T in 0.08 in 1.36 in (1968)
Month to date precipitation 1.93 1.61  
Year to date precipitation 4.36 5.43  
Snow  
Snow T in 0.40 in 5.60 in (2001)
Month to date snowfall 16.2 13.0  
Since 1 July snowfall 81.9 73.8  
Snow Depth 3.00 in    
Sea Level Pressure  
Sea Level Pressure 29.74 in    
Wind  
Wind Speed 12 mph (WNW)    
Max Wind Speed 24 mph    
Max Gust Speed 33 mph    
Visibility 10 miles    
Events Snow    
T = Trace of Precipitation, MM = Missing Value Source: NWS Daily Summary

Daily Weather History Graph

Daily Weather History Graph

Search for Another Location

Airport or City:

Trip Planner

Search our weather history database for the weather conditions in past years. The results will help you decide how hot, cold, wet, or windy it might be!

Date:

Astronomy

Mar. 23, 2013 Rise Set
Actual Time 6:49 AM EDT 7:09 PM EDT
Civil Twilight 6:20 AM EDT 7:38 PM EDT
Nautical Twilight 5:46 AM EDT 8:12 PM EDT
Astronomical Twilight 5:11 AM EDT 8:47 PM EDT
Moon 3:25 PM EDT (3/23) 4:32 AM EDT (3/23)
Length of Visible Light 13h 17m
Length of Day
12h 19m
Waxing Gibbous, 85% of the Moon is Illuminated
Mar 23
Waxing Gibbous
Mar 27
Full
Apr 3
Last Quarter
Apr 10
New
Apr 18
First Quarter

Hourly Weather History & Observations

Time (EDT) Temp. Windchill Dew Point Humidity Pressure Visibility Wind Dir Wind Speed Gust Speed Precip Events Conditions
12:54 AM 28.9 °F 20.4 °F 19.0 °F 67% 29.75 in 10.0 mi West 9.2 mph - N/A   Overcast
1:54 AM 30.0 °F 23.2 °F 19.9 °F 66% 29.73 in 10.0 mi West 6.9 mph - N/A   Overcast
2:54 AM 30.0 °F 21.7 °F 19.9 °F 66% 29.72 in 10.0 mi WNW 9.2 mph - N/A   Overcast
3:09 AM 30.2 °F 22.6 °F 21.2 °F 69% 29.70 in 10.0 mi West 8.1 mph - N/A   Overcast
3:43 AM 30.2 °F 21.3 °F 21.2 °F 69% 29.69 in 8.0 mi WNW 10.4 mph - 0.00 in Snow Light Snow
3:54 AM 30.0 °F 21.1 °F 23.0 °F 75% 29.71 in 5.0 mi WNW 10.4 mph - 0.00 in Snow Light Snow
4:54 AM 30.0 °F 22.4 °F 21.9 °F 72% 29.70 in 10.0 mi West 8.1 mph - 0.00 in   Overcast
5:33 AM 30.2 °F 23.4 °F 21.2 °F 69% 29.70 in 10.0 mi WNW 6.9 mph - N/A   Overcast
5:54 AM 30.0 °F 21.7 °F 21.0 °F 69% 29.71 in 10.0 mi WNW 9.2 mph - N/A   Overcast
6:54 AM 28.4 °F 20.4 °F 19.4 °F 69% 29.71 in 10.0 mi WNW 8.1 mph - N/A   Overcast
7:13 AM 28.4 °F 19.7 °F 19.4 °F 69% 29.71 in 10.0 mi WNW 9.2 mph 16.1 mph N/A   Mostly Cloudy
7:30 AM 30.2 °F 22.6 °F 19.4 °F 64% 29.71 in 10.0 mi West 8.1 mph - N/A   Mostly Cloudy
7:54 AM 30.0 °F 22.4 °F 19.9 °F 66% 29.72 in 10.0 mi West 8.1 mph - N/A   Mostly Cloudy
8:54 AM 32.0 °F 23.0 °F 19.4 °F 60% 29.70 in 10.0 mi WNW 11.5 mph 21.9 mph N/A   Mostly Cloudy
9:54 AM 33.1 °F 26.1 °F 21.0 °F 61% 29.72 in 10.0 mi WNW 8.1 mph 19.6 mph N/A   Mostly Cloudy
10:54 AM 34.0 °F 24.6 °F 17.1 °F 50% 29.70 in 10.0 mi WNW 13.8 mph 32.2 mph N/A   Mostly Cloudy
11:54 AM 36.0 °F 25.6 °F 17.1 °F 46% 29.70 in 10.0 mi WNW 18.4 mph 28.8 mph N/A   Mostly Cloudy
12:54 PM 36.0 °F 26.3 °F 17.1 °F 46% 29.69 in 10.0 mi WNW 16.1 mph 23.0 mph N/A   Overcast
1:54 PM 36.0 °F 26.0 °F 17.1 °F 46% 29.70 in 10.0 mi WNW 17.3 mph 23.0 mph N/A   Overcast
2:54 PM 36.0 °F 26.7 °F 18.0 °F 48% 29.71 in 10.0 mi WNW 15.0 mph 26.5 mph N/A   Overcast
3:54 PM 37.0 °F 26.7 °F 18.0 °F 46% 29.73 in 10.0 mi WNW 19.6 mph 27.6 mph N/A   Overcast
4:54 PM 36.0 °F 26.3 °F 19.9 °F 52% 29.75 in 10.0 mi WNW 16.1 mph 25.3 mph N/A   Overcast
5:54 PM 36.0 °F 27.1 °F 19.9 °F 52% 29.77 in 10.0 mi WNW 13.8 mph 25.3 mph N/A   Overcast
6:54 PM 35.1 °F 25.9 °F 21.0 °F 57% 29.79 in 10.0 mi WNW 13.8 mph 23.0 mph N/A   Overcast
7:54 PM 35.1 °F 26.9 °F 21.0 °F 57% 29.81 in 9.0 mi WNW 11.5 mph 19.6 mph 0.00 in Snow Light Snow
8:54 PM 35.1 °F 26.4 °F 21.9 °F 59% 29.83 in 9.0 mi WNW 12.7 mph - 0.00 in Snow Light Snow
9:54 PM 35.1 °F 26.4 °F 21.9 °F 59% 29.82 in 9.0 mi WNW 12.7 mph - 0.00 in Snow Light Snow
10:54 PM 35.1 °F 27.4 °F 21.0 °F 57% 29.81 in 9.0 mi WNW 10.4 mph 21.9 mph 0.00 in Snow Light Snow
11:54 PM 35.1 °F 25.9 °F 21.9 °F 59% 29.81 in 9.0 mi WNW 13.8 mph 18.4 mph 0.00 in Snow Light Snow